STARLINK-34422, 64415

Orbit data source: Space-Track

STARLINK-34422, 64415 is a payload satellite owned by SpaceX/Seattle (US) in LEO that was launched on Tue, 17 Jun 2025 UTC via an FALCON 9 launch vehicle from the Air Force Western Test Range (AFWTR). Payload-class satellites include a variety of spacecraft equipped with specific instruments for various scientific and technological missions. These include communications satellites like Starlink; space stations such as the ISS; scientific satellites like the Hubble; Earth observation satellites from companies like Planet Labs, Umbra, and HawkEye 360; GPS; miniature CubeSats for education and research; and military/defense satellites.

Loading next visibility...
Identifier
64415, 2025-129D
Orbit
LEO
Country
Flag of USUS
Related business
Manufacturer
SpaceX/Seattle
Mission
Operational Commercial Communications
Bus & Motor
STARLINK V2MO, Unknown motor
Mass
575 kg wet, ~530 kg dry
Launch date (UTC)
2025-06-17 (1 year ago)
Launch vehicle
FALCON 9
Launch site
Air Force Western Test Range (AFWTR)
Object type
Payload
Rocket body
Debris
Shape & HBR
Box + 2 Pan, 17.7 m
Radar Cross Section
36.964 m², Large (>1 m²)

Expand to show TLE details & history
Last TLE update: 12 hours ago

TLE from 12 hours ago
0 STARLINK-34422
1 64415U 25129D   26171.35486703  .00002227  00000-0  19439-3 0  9994
2 64415  70.0012 175.6787 0004310 257.7632 102.3044 14.98333456 56600
Epoch: 2026-06-20T08:31Z
TLE epoch observation values (Epoch: 2026-06-20T08:31:00.511Z)
Latitude
-0.00007°
Longitude
139.35586°
Altitude
575.109 km
Speed
7.573 km/s
True Right ascension
11h 42m 42s
True Declination
0° 00' 00"
Sunlit
Object was in daylight at epoch
Visualization orbit readout
Latitude
Unknown
Longitude
Unknown
Altitude
Unknown
Speed
Unknown
Apparent Right ascension
Unknown
Apparent Declination
Unknown
Sunlit
N/A
Visualization observer readout
Local Sidereal Time
07:20:15
Azimuth
Unknown
Elevation
Unknown
Doppler factor
Unknown
Orbital elements
Apogee altitude
572.988 km
Perigee altitude
566.999 km
Semi-major axis
6,948.13 km
Eccentricity
0.00043
Inclination
70.0012°
RAAN
175.6787°
Arg. of periapsis
257.7632°
True anomaly
102.35265°
Mean anomaly
102.3044°
Eccentric anomaly
102.32853°
Mean motion
3.7475 °/min
Orbital period
96.06 mins
BSTAR
0.00019439
Loading maneuver chart data...
Computing Atmospheric mass density...
Loading historical data...
Loading historical data...
Loading historical data...
Loading historical data...
Loading historical data...
Loading historical data...
Loading historical data...

Documentation

Showing up to 5 results
|